User: anonymous   Login
Location: Caltech
(34.1382°N, 118.1253°W)
Time: 09:05:37
(UTC-08:00)
Language:

Cosmos 2251 Rocket - Orbit

View from above orbital plane
View from above orbital plane
View from above satellite
View from above satellite

Ground track
Ground track

The orbit data is extracted from the following two-line orbital elements,

1 22676U 93036B   17344.91448476 -.00000010 +00000-0 +58729-5 0  9994
2 22676 074.0419 218.6503 0019385 205.5825 154.4369 14.33943491280393
Epoch (UTC): 10 December 2017 21:56:51
Eccentricity: 0.0019385
inclination: 74.0419°
perigee height: 765 km
apogee height: 792 km
right ascension of ascending node: 218.6503°
argument of perigee: 205.5825°
revolutions per day: 14.33943491
mean anomaly at epoch: 154.4369°
orbit number at epoch: 28039

The dashed part of the orbit path shows where the satellite is in the earth's shadow,  

DLR